Regional Weather Roundup
Issued by NWS

Home | Current Version | Previous Version | Graphics & Text | Print | Product List | Glossary On
Versions: 1 2 3 4 5 6 7 8 9 10 11 12 13 14 15 16 17 18 19 20 21 22 23 24 25 26 27 28 29 30 31 32 33 34 35 36 37 38 39 40 41 42 43 44 45 46 47 48 49 50
000
ASUS43 KIND 252309
RWRIN

WEATHER ROUNDUP FOR INDIANA
NATIONAL WEATHER SERVICE INDIANAPOLIS IN
600 PM EST TUE NOV 25 2014

NOTE: "FAIR" INDICATES FEW OR NO CLOUDS BELOW 12,000 FEET WITH NO
SIGNIFICANT WEATHER AND/OR OBSTRUCTIONS TO VISIBILITY.

* - STATION DOES NOT REPORT WEATHER SUCH AS PRECIPITATION OR FOG.

+ - STATION NOT QUALITY CONTROLLED BY THE NATIONAL WEATHER SERVICE.
    USE DATA WITH CAUTION...ESPECIALLY DEWPOINT AND RELATIVE
    HUMIDITY OBSERVATIONS.

INZ001>003-010>013-019-020-260000-
NORTHWEST INDIANA

CITY           SKY/WX    TMP DP  RH WIND       PRES   REMARKS
KNOX *+        CLOUDY    26  19  76 SW6       30.16R WCI  19
LA PORTE +     CLOUDY    27  19  72 CALM      30.16R
MICHIGAN CITY+ CLOUDY    27  18  69 SW7       30.17R WCI  19
MONTICELLO +   CLOUDY    26  20  78 W5        30.17R WCI  20
RENSSELAER +   CLOUDY    27  23  86 W8        30.17R WCI  18
VALPARAISO     CLOUDY    24  18  77 W6        30.16R WCI  17

$$

LMZ046-743>745-260000-
SOUTHERN LAKE MICHIGAN

STATION/POSITION TIME  TEMP WIND        PRES
                       AIR  DIR/SP/G
                 (UTC) (F)  (DEG/KT/KT) (MB)
MICHIGAN CITY    2300   26  180/  8/ 10   N/A

$$

INZ004-005-014>016-021>024-260000-
NORTH CENTRAL INDIANA

CITY           SKY/WX    TMP DP  RH WIND       PRES   REMARKS
ELKHART        CLOUDY    27  18  69 W5        30.16R WCI  21
GOSHEN         CLOUDY    27  19  72 NW6       30.15R WCI  20
LOGANSPORT +   CLOUDY    27  19  74 W5        30.17S WCI  21
PERU/GRISSOM   CLOUDY    26  23  91 W5        30.15F WCI  20
ROCHESTER +    CLOUDY    28  23  80 SW3       30.16R
SOUTH BEND     CLOUDY    27  19  72 SW6       30.15R WCI  20
WARSAW +       CLOUDY    27  19  74 S3        30.16R

$$

INZ006>009-017-018-025>027-260000-
NORTHEAST INDIANA

CITY           SKY/WX    TMP DP  RH WIND       PRES   REMARKS
ANGOLA *+      CLOUDY    27  19  74 NW5       30.15R WCI  21
AUBURN +       CLOUDY    28  19  69 W5        30.16R WCI  23
FORT WAYNE     CLOUDY    26  20  77 NW6       30.16S WCI  19
HUNTINGTON +   CLOUDY    26  21  81 W5        30.15F WCI  20

$$

INZ028-029-035-036-043>045-051>053-260000-
WEST CENTRAL INDIANA

CITY           SKY/WX    TMP DP  RH WIND       PRES   REMARKS
GREENCASTLE +  CLOUDY    28  23  80 NW3       30.17R
LAFAYETTE      CLOUDY    25  20  81 W3        30.18R
TERRE HAUTE    CLOUDY    29  22  75 N6        30.18R WCI  23

$$

INZ030>032-037>040-046>048-054>057-064-065-260000-
CENTRAL INDIANA

CITY           SKY/WX    TMP DP  RH WIND       PRES   REMARKS
CP ATTERBURY + CLOUDY    32  27  80 NW3       30.17R
COLUMBUS       MOCLDY    32  28  86 NW7       30.17R WCI  26
FRANKFORT +    CLOUDY    28  24  86 SW7       30.18R WCI  20
INDIANAPOLIS   CLOUDY    28  22  78 NW7       30.16S WCI  21
-EAGLE CREEK   CLOUDY    27  22  81 W5        30.16S WCI  22
KOKOMO *+      CLOUDY    27  19  74 NW9       30.16F WCI  17
MARION +         N/A     27  22  83 NW9       30.16S HAZE    WCI  17
MT COMFORT *+  CLOUDY    28  19  69 N7        30.16S WCI  21
SHELBYVILLE    CLOUDY    32  24  72 NW3       30.16R
ZIONSVILLE +   CLOUDY    28  21  77 W6        30.16S WCI  21

$$

INZ033-034-041-042-049-050-058-059-260000-
EAST CENTRAL INDIANA

CITY           SKY/WX    TMP DP  RH WIND       PRES   REMARKS
MUNCIE         CLOUDY    29  23  78 W6        30.15R WCI  23

$$

INZ060-061-067>069-081>083-085>088-260000-
SOUTHWEST INDIANA

CITY           SKY/WX    TMP DP  RH WIND       PRES   REMARKS
EVANSVILLE     CLOUDY    36  27  69 N6        30.19R
HUNTINGBURG *+ MOCLDY    34  25  69 NW7       30.18S WCI  28
WASHINGTON +   CLOUDY    32  27  83 N6        30.19R WCI  26

$$

INZ062-063-066-070>080-084-089>092-260000-
SOUTH CENTRAL AND SOUTHEAST INDIANA

CITY           SKY/WX    TMP DP  RH WIND       PRES   REMARKS
BLOOMINGTON    CLOUDY    31  24  75 CALM      30.16R

$$



USA.gov is the U.S. government's official web portal to all federal, state and local government web resources and services.